Wind_Speed
107 106 105 110 115 100 103 87 86 76 60 70 66 65 67 65 64 61 55 54 53 48 49 47 45 42 43 45 43 45 46 49 51 48 51 52 53 52 53 57 54 58 55 56
103 109 109 109 108 101 100 99 95 80 69 75 70 61 67 64 64 59 57 52 53 51 51 48 46 44 49 45 43 46 48 50 48 52 55 53 52 52 53 51 53 53 54 56
89 106 111 108 108 105 111 112 106 96 82 68 66 65 57 57 56 57 55 54 53 54 55 52 49 49 46 48 49 47 46 49 50 49 46 53 55 50 50 50 53 51 55 54
69 99 110 110 109 111 113 113 110 102 85 81 71 73 65 57 53 53 50 48 56 51 48 52 55 53 51 50 49 47 46 48 49 49 52 56 55 53 52 53 52 57 55 59
52 79 103 107 109 108 109 112 108 103 88 83 71 67 71 57 58 56 54 47 41 50 54 55 52 51 52 50 48 46 46 48 49 53 53 51 52 58 59 57 61 60 60 64
47 57 89 103 104 104 104 98 99 83 93 88 78 73 64 56 59 56 53 51 52 49 52 55 54 54 49 45 47 47 47 47 49 51 51 52 54 54 57 61 62 62 66 65
42 49 70 93 98 98 101 101 95 84 82 68 74 69 59 53 55 52 49 49 50 52 50 51 49 46 49 47 47 47 49 50 50 53 55 57 53 55 59 62 62 65 64 64
41 40 55 79 83 89 90 85 83 71 62 57 65 70 62 59 55 50 42 44 42 38 43 47 48 51 52 49 49 51 49 51 50 52 55 56 59 57 57 59 60 62 64 67
40 43 41 61 74 79 77 73 72 75 77 80 66 59 56 60 47 47 50 50 46 45 50 50 51 55 54 52 53 52 50 49 49 51 51 51 52 55 55 58 61 62 62 62
35 37 40 44 67 71 69 68 63 66 63 75 74 54 59 52 51 53 50 48 46 48 50 54 56 57 56 53 53 52 48 46 46 46 49 52 56 57 55 56 59 57 58 60
38 38 33 40 55 69 71 72 75 68 53 53 62 57 58 56 48 45 45 50 52 45 51 55 56 56 55 53 48 47 46 45 47 51 53 55 55 53 53 57 54 57 56 58
33 35 33 42 54 66 71 65 56 56 58 65 63 61 55 53 56 56 65 53 57 58 57 59 56 54 49 43 43 43 46 46 48 50 51 53 52 52 53 53 55 55 58 60
29 31 33 46 51 58 62 58 57 48 44 56 71 68 50 50 58 60 64 57 51 52 50 44 44 44 43 43 44 42 45 45 47 50 50 50 51 53 53 53 55 56 59 61
31 36 46 41 46 45 43 61 65 61 58 55 56 55 34 39 39 45 49 49 45 43 42 41 40 40 41 43 45 43 45 46 46 48 50 51 53 53 55 55 57 60 60 60
26 36 56 55 34 40 49 48 53 55 59 58 61 60 38 36 39 37 41 33 30 31 31 35 38 39 41 42 44 46 45 44 47 49 51 52 53 55 55 58 61 61 56 50
23 38 43 55 44 30 35 41 42 45 43 51 57 60 48 36 35 31 29 30 31 33 35 37 39 41 41 43 44 44 45 46 48 49 51 53 56 56 60 61 60 50 39 30
27 37 42 46 37 23 17 25 47 55 48 40 40 47 44 41 37 33 34 34 35 36 38 40 41 42 43 45 44 45 45 46 48 51 56 57 59 61 60 55 38 26 21 20
35 35 35 32 29 32 28 19 17 23 33 30 38 35 33 35 36 37 39 38 37 38 40 41 41 39 41 41 43 45 48 50 52 53 55 55 55 51 41 26 20 20 18 20
31 30 36 40 37 37 40 26 26 29 28 31 32 32 34 34 35 37 38 37 37 36 35 35 37 37 39 42 44 46 47 45 42 41 44 43 35 22 16 18 18 19 23 23
21 32 33 30 29 33 31 31 30 27 25 26 26 29 30 30 31 31 30 31 32 32 33 34 35 35 36 35 34 31 27 25 24 21 16 12 10 14 19 21 22 24 25 25
8 9 10 15 17 21 24 23 23 24 24 24 25 24 24 25 27 26 27 27 28 29 29 30 27 27 22 15 9 5 4 2 3 4 6 10 14 18 20 21 23 26 29 31
13 13 15 16 17 19 21 22 24 25 25 26 26 25 23 23 23 23 25 25 25 26 25 23 20 18 16 13 11 10 8 7 8 10 12 14 17 20 24 27 30 32 33 34
12 14 16 18 21 22 24 25 25 25 24 23 22 23 23 24 24 24 23 23 24 21 20 20 18 21 22 19 19 19 17 16 17 18 19 21 24 26 27 29 32 35 37 40
12 13 16 18 20 21 22 23 23 24 24 24 24 25 24 22 23 24 23 23 22 21 20 20 17 22 24 25 24 27 25 23 22 22 23 26 29 31 33 36 39 41 42 45
11 14 16 16 16 16 16 16 17 18 21 22 23 23 23 24 24 23 22 21 20 19 18 18 18 18 19 21 22 24 24 22 23 25 28 32 35 38 40 42 44 48 50 53
2 6 13 16 19 18 17 17 17 18 19 21 21 22 22 22 21 20 20 19 17 16 17 19 21 21 19 19 19 21 22 25 28 31 34 37 40 44 47 49 52 55 57 58
6 5 5 8 10 13 15 16 16 16 17 18 19 20 21 20 21 19 14 16 17 18 18 18 18 18 19 20 22 24 27 30 33 37 41 44 48 50 53 54 54 52 51 51
Wind_Direction
212 212 214 215 217 212 215 213 212 211 205 218 221 223 229 229 235 234 231 231 233 239 242 242 238 238 240 242 243 245 246 249 253 259 259 259 264 263 264 266 271 275 273 270
211 209 210 212 216 215 211 214 215 215 216 218 218 218 222 224 227 231 234 236 237 238 236 241 237 238 246 246 247 248 252 253 255 259 261 263 266 265 265 267 267 270 271 272
211 208 207 208 212 213 217 218 216 217 220 218 218 220 217 219 223 233 234 234 234 235 235 239 247 245 249 249 250 254 256 256 256 258 259 260 261 262 264 263 271 274 272 272
211 207 205 206 207 209 218 224 223 222 217 218 213 215 219 223 225 229 230 235 236 239 240 241 246 249 251 253 254 253 254 253 255 255 252 258 263 264 260 264 268 269 275 273
211 210 206 206 206 210 215 221 222 224 223 220 217 215 220 219 229 229 234 233 246 242 241 244 246 248 249 248 247 247 248 251 251 252 255 256 254 257 263 269 273 278 277 277
213 210 208 207 208 210 213 218 226 230 228 225 218 219 224 224 230 230 234 239 242 240 243 242 247 245 240 241 246 245 248 247 247 251 252 251 255 259 263 269 276 280 279 279
211 211 209 208 209 211 212 214 215 210 221 226 223 217 217 222 228 229 235 242 242 244 245 244 244 241 235 244 244 243 245 244 244 247 251 255 263 265 272 275 277 277 279 279
205 204 207 208 209 210 211 211 213 205 205 223 222 219 219 224 230 227 230 233 243 246 245 242 244 241 240 245 243 244 245 246 251 254 259 263 267 271 274 273 276 279 280 279
207 207 207 206 205 207 206 209 209 209 212 217 224 225 223 227 229 234 238 236 245 252 244 244 247 247 247 255 245 246 248 252 255 260 264 269 270 272 275 278 277 278 278 277
201 204 208 207 203 201 198 198 208 213 220 227 222 222 224 231 231 234 244 245 251 250 249 246 248 249 251 249 246 250 249 253 258 263 267 270 274 277 278 276 275 276 275 277
201 203 202 197 200 191 196 200 204 209 214 215 216 225 227 232 238 235 241 244 246 251 249 249 249 248 251 246 246 245 252 258 262 265 269 272 275 275 275 273 275 276 279 283
185 191 199 195 193 193 195 202 209 216 221 220 214 219 224 237 240 242 244 252 248 253 257 254 250 251 244 247 252 254 259 264 264 265 268 270 274 274 272 274 275 280 283 284
190 192 194 180 183 194 196 200 198 196 206 206 216 225 239 241 242 244 242 245 244 246 242 237 237 239 243 250 257 259 262 264 267 267 269 271 269 270 272 276 280 282 283 285
180 187 172 165 171 179 197 211 205 215 218 213 215 218 230 232 233 230 234 236 226 226 230 237 242 248 253 257 260 262 261 264 263 265 267 267 268 272 276 280 280 282 285 289
142 166 159 168 163 179 196 208 210 209 213 217 216 218 246 236 224 222 220 225 231 237 243 245 252 255 254 257 256 259 262 260 261 262 264 270 275 277 279 280 282 284 288 289
155 152 171 172 170 176 196 201 203 196 209 218 225 223 231 228 216 238 249 253 242 235 243 252 250 248 252 252 255 254 255 257 263 269 271 274 277 281 280 280 282 284 280 270
157 191 184 171 171 159 160 181 197 197 211 218 213 211 214 224 239 238 235 239 242 241 242 243 245 247 247 249 252 257 261 266 269 271 275 278 278 276 277 276 273 260 254 259
170 175 180 186 191 188 192 195 200 189 197 203 216 229 229 236 235 229 229 230 233 236 236 239 243 249 254 259 262 268 268 269 273 277 276 273 271 269 267 258 233 233 251 266
169 183 188 191 201 214 218 224 211 200 202 209 211 216 221 226 223 224 228 232 238 242 246 251 255 260 265 268 271 274 278 279 277 273 267 266 265 256 227 207 231 248 262 270
149 170 180 192 191 200 211 219 216 212 206 201 202 204 208 216 221 226 232 236 242 246 252 258 264 270 276 281 283 283 280 272 263 256 252 244 231 210 207 226 246 256 261 266
171 179 178 186 194 193 198 205 211 211 213 215 218 220 222 222 227 234 239 243 248 252 258 264 268 272 270 257 247 234 206 153 132 169 191 197 207 217 232 249 260 265 269 275
196 199 204 208 212 216 218 222 222 223 223 226 230 233 234 236 235 236 239 242 249 257 263 260 257 247 225 221 218 218 211 216 226 227 231 236 246 254 262 268 274 277 279 284
200 203 205 209 215 216 223 227 228 231 233 230 224 222 224 226 231 235 239 247 254 256 249 245 239 224 220 224 226 227 228 240 254 260 260 264 272 276 279 281 284 287 289 290
183 196 208 213 220 224 225 226 225 224 224 226 226 227 229 228 230 234 236 239 237 239 238 239 238 229 228 232 235 233 243 256 262 266 270 275 278 282 286 290 290 290 290 290
216 222 220 214 211 209 208 207 210 215 218 221 222 222 224 226 228 230 233 233 234 235 232 232 231 234 237 241 242 245 252 260 269 277 282 285 285 286 287 288 289 291 291 291
143 216 223 225 224 221 217 216 217 218 217 215 215 218 222 225 225 226 231 232 232 233 229 230 233 237 241 248 254 263 271 276 278 279 280 282 284 286 288 290 291 290 290 290
76 85 144 180 196 199 200 204 208 211 213 215 218 219 220 222 222 224 221 223 226 232 233 233 235 242 249 258 265 271 274 277 279 282 285 287 289 290 290 289 290 290 290 291
Height
5399 5426 5451 5473 5490 5510 5518 5528 5531 5550 5552 5554 5564 5584 5598 5607 5618 5625 5629 5639 5646 5651 5655 5661 5666 5669 5674 5676 5681 5683 5685 5685 5686 5692 5693 5694 5695 5698 5697 5696 5700 5697 5698 5697
5376 5402 5429 5451 5470 5487 5502 5508 5520 5531 5534 5534 5561 5573 5584 5595 5604 5615 5620 5629 5635 5639 5644 5647 5655 5658 5659 5666 5669 5670 5671 5673 5677 5678 5679 5681 5683 5683 5683 5684 5683 5684 5685 5684
5358 5381 5407 5429 5450 5470 5480 5484 5496 5505 5510 5531 5549 5565 5576 5587 5595 5604 5610 5618 5620 5628 5633 5638 5644 5644 5649 5653 5654 5657 5659 5660 5662 5666 5668 5666 5666 5670 5670 5669 5668 5672 5670 5675
5347 5365 5387 5410 5431 5450 5457 5458 5468 5485 5498 5526 5542 5551 5566 5573 5584 5595 5600 5607 5612 5618 5622 5626 5632 5634 5639 5641 5643 5643 5644 5646 5649 5652 5651 5651 5654 5655 5655 5654 5656 5653 5660 5657
5339 5353 5364 5391 5415 5427 5438 5448 5461 5476 5502 5519 5529 5538 5552 5563 5577 5585 5593 5600 5605 5607 5611 5617 5621 5620 5625 5627 5630 5630 5632 5633 5634 5634 5636 5639 5641 5640 5639 5639 5640 5640 5639 5640
5334 5343 5358 5375 5393 5406 5414 5434 5455 5474 5489 5502 5511 5531 5549 5561 5567 5575 5582 5588 5589 5594 5599 5604 5607 5607 5609 5613 5615 5616 5618 5619 5621 5622 5623 5623 5625 5627 5628 5626 5627 5626 5621 5622
5328 5336 5347 5362 5377 5393 5412 5434 5454 5462 5473 5488 5510 5528 5537 5546 5558 5563 5567 5573 5578 5583 5590 5591 5592 5593 5596 5599 5601 5604 5606 5607 5608 5609 5608 5608 5615 5615 5614 5612 5611 5607 5604 5603
5325 5332 5340 5353 5370 5387 5408 5427 5439 5451 5468 5489 5499 5511 5525 5534 5540 5544 5554 5561 5567 5572 5576 5575 5576 5579 5582 5586 5589 5592 5594 5594 5597 5597 5596 5599 5597 5602 5601 5596 5596 5593 5588 5586
5322 5331 5338 5348 5363 5382 5403 5421 5435 5451 5461 5475 5493 5504 5514 5521 5529 5537 5544 5551 5553 5558 5560 5562 5561 5566 5571 5574 5578 5580 5582 5583 5585 5584 5584 5584 5585 5584 5586 5582 5580 5578 5575 5571
5320 5329 5338 5348 5361 5379 5401 5417 5430 5442 5452 5466 5482 5492 5503 5511 5519 5525 5531 5536 5540 5544 5547 5548 5550 5553 5557 5560 5565 5569 5569 5569 5571 5571 5570 5571 5567 5570 5568 5567 5567 5566 5561 5556
5318 5327 5336 5345 5358 5377 5394 5408 5422 5432 5444 5459 5472 5485 5490 5499 5504 5513 5519 5523 5527 5531 5534 5536 5538 5542 5545 5547 5551 5555 5557 5557 5558 5557 5557 5558 5553 5556 5554 5549 5550 5548 5546 5541
5316 5326 5336 5343 5356 5372 5390 5408 5419 5432 5444 5453 5464 5473 5481 5486 5490 5501 5504 5509 5516 5518 5521 5524 5527 5531 5534 5537 5538 5543 5543 5547 5546 5547 5544 5541 5541 5539 5537 5536 5532 5532 5530 5526
5317 5325 5333 5342 5357 5372 5390 5403 5415 5424 5434 5445 5455 5464 5470 5474 5481 5485 5490 5496 5502 5506 5510 5513 5516 5519 5523 5523 5526 5531 5529 5531 5532 5531 5530 5531 5528 5526 5524 5521 5518 5515 5513 5510
5317 5324 5335 5349 5363 5378 5392 5399 5408 5419 5430 5438 5447 5458 5462 5466 5471 5475 5483 5489 5491 5494 5498 5501 5505 5509 5511 5512 5513 5517 5518 5519 5518 5516 5515 5516 5513 5512 5510 5509 5504 5500 5497 5494
5320 5329 5342 5356 5365 5376 5385 5395 5404 5414 5424 5431 5441 5450 5455 5460 5467 5471 5474 5478 5481 5485 5489 5492 5495 5498 5499 5500 5502 5504 5506 5507 5504 5503 5502 5502 5500 5498 5496 5492 5489 5486 5483 5480
5329 5338 5346 5358 5370 5378 5385 5393 5401 5413 5422 5428 5434 5442 5449 5454 5458 5461 5465 5468 5470 5474 5477 5480 5481 5483 5487 5488 5490 5491 5491 5492 5491 5490 5489 5489 5486 5485 5480 5475 5473 5471 5470 5469
5335 5340 5347 5356 5366 5375 5381 5391 5399 5409 5415 5420 5427 5434 5440 5446 5451 5453 5456 5458 5460 5462 5464 5467 5470 5471 5473 5475 5477 5477 5480 5480 5479 5476 5472 5472 5470 5466 5463 5459 5459 5460 5461 5462
5339 5345 5351 5359 5366 5372 5379 5386 5395 5404 5411 5415 5420 5426 5432 5438 5441 5445 5447 5448 5449 5451 5454 5456 5458 5460 5460 5463 5464 5465 5464 5465 5464 5462 5457 5455 5451 5449 5447 5448 5451 5454 5455 5456
5342 5347 5353 5361 5366 5372 5379 5385 5391 5397 5406 5409 5414 5420 5425 5428 5433 5436 5438 5438 5440 5442 5444 5446 5448 5448 5449 5451 5450 5450 5448 5449 5446 5444 5441 5438 5437 5437 5439 5443 5446 5448 5449 5449
5344 5350 5355 5358 5362 5366 5372 5379 5386 5389 5393 5398 5404 5409 5416 5421 5425 5427 5430 5430 5432 5434 5435 5437 5437 5437 5437 5436 5435 5434 5432 5431 5430 5428 5428 5429 5432 5435 5437 5439 5442 5443 5443 5442
5348 5350 5354 5358 5362 5367 5372 5376 5381 5384 5388 5392 5397 5402 5406 5410 5414 5416 5419 5420 5422 5425 5427 5428 5426 5427 5428 5427 5426 5426 5425 5424 5424 5426 5429 5431 5433 5434 5435 5436 5436 5435 5434 5433
5349 5351 5354 5358 5362 5365 5370 5373 5377 5380 5384 5388 5391 5395 5399 5402 5406 5408 5411 5413 5415 5415 5418 5418 5417 5419 5421 5422 5422 5423 5424 5425 5427 5428 5429 5430 5431 5430 5430 5429 5427 5426 5424 5423
5348 5351 5353 5355 5358 5362 5365 5368 5372 5376 5379 5383 5387 5390 5394 5396 5400 5403 5405 5406 5407 5408 5409 5409 5413 5415 5417 5419 5421 5422 5422 5423 5424 5424 5424 5424 5423 5422 5421 5419 5418 5416 5414 5412
5348 5349 5351 5353 5355 5358 5361 5364 5368 5371 5374 5377 5381 5384 5388 5390 5393 5395 5398 5400 5402 5403 5405 5407 5409 5410 5411 5413 5415 5416 5417 5417 5417 5416 5416 5415 5414 5413 5412 5410 5407 5404 5403 5399
5345 5347 5348 5350 5353 5355 5358 5360 5363 5366 5369 5373 5376 5380 5383 5385 5388 5390 5392 5394 5396 5398 5401 5403 5404 5404 5405 5407 5408 5408 5409 5409 5408 5408 5407 5406 5404 5403 5401 5398 5395 5392 5389 5385
5343 5343 5344 5345 5348 5351 5354 5357 5360 5362 5365 5368 5371 5374 5377 5380 5382 5385 5387 5389 5391 5394 5396 5397 5398 5399 5399 5400 5401 5401 5401 5401 5400 5399 5398 5396 5393 5391 5388 5385 5381 5377 5372 5368
5343 5342 5342 5343 5345 5348 5350 5353 5356 5359 5361 5364 5366 5369 5372 5375 5377 5380 5382 5384 5388 5389 5391 5392 5392 5393 5393 5393 5394 5394 5393 5392 5391 5389 5387 5383 5380 5376 5372 5369 5365 5360 5355 5351